| time (UTC) | temp F | wind direction | speed knots | gust knots | rain 1hr in | rain 24hr in | rain mn in | humidity % | barometer mb |
| 20260507151529 | 59 | 294 | 5.2 | 9.6 | 0.00 | 0.05 | 0.00 | 46 | 1012.1 |
| 20260507151025 | 58 | 331 | 6.1 | 10.4 | 0.00 | 0.05 | 0.00 | 51 | 1012.1 |
| 20260507150544 | 57 | 21 | 6.1 | 12.2 | 0.00 | 0.05 | 0.00 | 48 | 1012.2 |
| 20260507150021 | 57 | 5 | 8.7 | 13.0 | 0.00 | 0.05 | 0.00 | 46 | 1012.2 |
| 20260507145517 | 57 | 20 | 7.0 | 9.6 | 0.00 | 0.08 | 0.00 | 45 | 1012.4 |
| 20260507145016 | 56 | 317 | 4.3 | 9.6 | 0.00 | 0.08 | 0.00 | 46 | 1012.4 |
| 20260507144534 | 57 | 342 | 4.3 | 9.6 | 0.00 | 0.08 | 0.00 | 44 | 1012.5 |
| 20260507144032 | 57 | 311 | 4.3 | 13.0 | 0.00 | 0.08 | 0.00 | 46 | 1012.5 |
| 20260507143530 | 58 | 252 | 9.6 | 13.0 | 0.00 | 0.08 | 0.00 | 46 | 1012.5 |
| 20260507143028 | 56 | 345 | 4.3 | 9.6 | 0.00 | 0.08 | 0.00 | 47 | 1012.6 |
| 20260507142526 | 57 | 316 | 6.1 | 11.3 | 0.00 | 0.08 | 0.00 | 46 | 1012.6 |
| 20260507142023 | 57 | 317 | 6.1 | 12.2 | 0.00 | 0.08 | 0.00 | 47 | 1012.6 |
| 20260507141521 | 57 | 10 | 7.8 | 13.0 | 0.00 | 0.08 | 0.00 | 46 | 1012.6 |
| 20260507141018 | 57 | 360 | 7.8 | 13.9 | 0.00 | 0.08 | 0.00 | 45 | 1012.7 |
| 20260507140535 | 56 | 15 | 7.8 | 13.9 | 0.00 | 0.08 | 0.00 | 47 | 1012.8 |
| 20260507140054 | 56 | 19 | 7.0 | 12.2 | 0.00 | 0.08 | 0.00 | 46 | 1012.8 |
| 20260507135531 | 55 | 308 | 5.2 | 15.6 | 0.00 | 0.21 | 0.00 | 46 | 1012.8 |
| 20260507135029 | 55 | 350 | 8.7 | 15.6 | 0.00 | 0.21 | 0.00 | 48 | 1013.0 |
| 20260507134526 | 55 | 10 | 7.8 | 12.2 | 0.00 | 0.21 | 0.00 | 51 | 1013.0 |
| 20260507134024 | 55 | 335 | 6.1 | 9.6 | 0.00 | 0.21 | 0.00 | 51 | 1013.1 |
| 20260507133521 | 54 | 342 | 4.3 | 9.6 | 0.00 | 0.21 | 0.00 | 52 | 1013.2 |
| 20260507133019 | 54 | 354 | 6.1 | 10.4 | 0.00 | 0.21 | 0.00 | 51 | 1013.3 |
| 20260507132517 | 54 | 15 | 4.3 | 11.3 | 0.00 | 0.21 | 0.00 | 50 | 1013.3 |
| 20260507132016 | 54 | 300 | 6.1 | 11.3 | 0.00 | 0.21 | 0.00 | 52 | 1013.2 |
| 20260507131534 | 53 | 332 | 6.1 | 11.3 | 0.00 | 0.21 | 0.00 | 51 | 1013.4 |
| 20260507131030 | 53 | 300 | 3.5 | 13.9 | 0.00 | 0.21 | 0.00 | 55 | 1013.4 |
| 20260507130528 | 53 | 300 | 7.0 | 13.9 | 0.00 | 0.21 | 0.00 | 56 | 1013.2 |
| 20260507130026 | 53 | 277 | 3.5 | 7.0 | 0.00 | 0.21 | 0.00 | 58 | 1013.2 |
| 20260507125523 | 53 | 277 | 4.3 | 9.6 | 0.00 | 0.26 | 0.00 | 58 | 1013.3 |
| 20260507125021 | 53 | 350 | 4.3 | 9.6 | 0.00 | 0.26 | 0.00 | 58 | 1013.2 |
| 20260507124519 | 52 | 276 | 6.1 | 9.6 | 0.00 | 0.26 | 0.00 | 58 | 1013.3 |
| 20260507124016 | 52 | 340 | 6.1 | 9.6 | 0.00 | 0.26 | 0.00 | 59 | 1013.2 |
| 20260507123556 | 52 | 258 | 3.5 | 7.0 | 0.00 | 0.26 | 0.00 | 60 | 1013.0 |
| 20260507123032 | 52 | 258 | 3.5 | 8.7 | 0.00 | 0.26 | 0.00 | 60 | 1013.0 |
| 20260507122551 | 52 | 258 | 5.2 | 8.7 | 0.00 | 0.26 | 0.00 | 59 | 1013.0 |
| 20260507122027 | 52 | 254 | 5.2 | 7.8 | 0.00 | 0.26 | 0.00 | 60 | 1013.1 |
| 20260507121525 | 52 | 301 | 5.2 | 7.8 | 0.00 | 0.26 | 0.00 | 60 | 1013.0 |
| 20260507121022 | 52 | 302 | 4.3 | 7.8 | 0.00 | 0.26 | 0.00 | 59 | 1012.9 |
| 20260507120519 | 51 | 302 | 2.6 | 7.8 | 0.00 | 0.26 | 0.00 | 59 | 1013.0 |
| 20260507120016 | 51 | 302 | 2.6 | 7.8 | 0.00 | 0.26 | 0.00 | 60 | 1013.0 |
| 20260507115530 | 51 | 302 | 4.3 | 7.8 | 0.00 | 0.29 | 0.00 | 60 | 1013.1 |
| 20260507115028 | 51 | 302 | 3.5 | 8.7 | 0.00 | 0.29 | 0.00 | 60 | 1013.1 |
| 20260507114526 | 51 | 305 | 5.2 | 8.7 | 0.00 | 0.29 | 0.00 | 60 | 1013.0 |
| 20260507114023 | 51 | 304 | 5.2 | 11.3 | 0.00 | 0.29 | 0.00 | 60 | 1013.0 |
| 20260507113541 | 51 | 301 | 6.1 | 11.3 | 0.00 | 0.29 | 0.00 | 60 | 1013.0 |
| 20260507113017 | 51 | 232 | 4.3 | 8.7 | 0.00 | 0.29 | 0.00 | 60 | 1013.1 |
| 20260507112515 | 51 | 277 | 3.5 | 8.7 | 0.00 | 0.29 | 0.00 | 61 | 1013.1 |
| 20260507112032 | 51 | 288 | 4.3 | 13.0 | 0.00 | 0.29 | 0.00 | 61 | 1012.9 |
| 20260507111530 | 51 | 353 | 5.2 | 13.0 | 0.00 | 0.29 | 0.00 | 61 | 1012.9 |
| 20260507111027 | 51 | 334 | 5.2 | 9.6 | 0.00 | 0.29 | 0.00 | 62 | 1012.9 |
| 20260507110524 | 51 | 323 | 2.6 | 9.6 | 0.00 | 0.29 | 0.00 | 61 | 1012.8 |
| 20260507110023 | 51 | 329 | 4.3 | 9.6 | 0.00 | 0.29 | 0.00 | 61 | 1012.8 |
| 20260507105519 | 51 | 283 | 2.6 | 4.3 | 0.00 | 0.30 | 0.00 | 62 | 1012.7 |
| 20260507105038 | 51 | 283 | 1.7 | 5.2 | 0.00 | 0.30 | 0.00 | 63 | 1012.6 |
| 20260507104515 | 51 | 283 | 1.7 | 6.1 | 0.00 | 0.30 | 0.00 | 62 | 1012.5 |
| 20260507104033 | 51 | 283 | 2.6 | 7.8 | 0.00 | 0.30 | 0.00 | 62 | 1012.5 |
| 20260507103530 | 51 | 283 | 4.3 | 8.7 | 0.00 | 0.30 | 0.00 | 63 | 1012.4 |
| 20260507103028 | 51 | 309 | 3.5 | 7.0 | 0.00 | 0.30 | 0.00 | 63 | 1012.4 |
| 20260507102525 | 51 | 309 | 4.3 | 7.8 | 0.00 | 0.30 | 0.00 | 64 | 1012.4 |
| 20260507102022 | 51 | 309 | 4.3 | 7.8 | 0.00 | 0.30 | 0.00 | 65 | 1012.4 |
| 20260507101520 | 52 | 309 | 1.7 | 5.2 | 0.00 | 0.30 | 0.00 | 66 | 1012.1 |
| 20260507101017 | 51 | 309 | 2.6 | 6.1 | 0.00 | 0.30 | 0.00 | 66 | 1012.1 |
| 20260507100556 | 52 | 309 | 2.6 | 6.1 | 0.00 | 0.30 | 0.00 | 67 | 1012.1 |
| 20260507100054 | 52 | 309 | 1.7 | 4.3 | 0.00 | 0.30 | 0.00 | 67 | 1012.1 |
| 20260507095531 | 52 | 309 | 2.6 | 6.1 | 0.00 | 0.30 | 0.00 | 66 | 1012.1 |
| 20260507095049 | 52 | 309 | 3.5 | 6.1 | 0.00 | 0.30 | 0.00 | 66 | 1012.0 |
| 20260507094525 | 52 | 309 | 2.6 | 5.2 | 0.00 | 0.30 | 0.00 | 67 | 1012.0 |
| 20260507094023 | 52 | 309 | 0.9 | 5.2 | 0.00 | 0.30 | 0.00 | 68 | 1012.0 |
| 20260507093542 | 52 | 309 | 2.6 | 5.2 | 0.00 | 0.30 | 0.00 | 68 | 1012.2 |
| 20260507093019 | 52 | 309 | 2.6 | 5.2 | 0.00 | 0.30 | 0.00 | 68 | 1012.1 |
| 20260507092517 | 52 | 309 | 2.6 | 6.1 | 0.00 | 0.30 | 0.00 | 69 | 1012.1 |
| 20260507092056 | 52 | 309 | 3.5 | 6.1 | 0.00 | 0.30 | 0.00 | 69 | 1012.2 |
| 20260507091533 | 52 | 309 | 0.0 | 4.3 | 0.00 | 0.30 | 0.00 | 69 | 1012.2 |
| 20260507091028 | 52 | 309 | 0.9 | 5.2 | 0.00 | 0.30 | 0.00 | 67 | 1012.1 |
| 20260507090525 | 52 | 309 | 1.7 | 4.3 | 0.00 | 0.30 | 0.00 | 67 | 1012.1 |
| 20260507090022 | 53 | 309 | 1.7 | 5.2 | 0.00 | 0.30 | 0.00 | 66 | 1012.1 |
| 20260507085520 | 53 | 309 | 2.6 | 5.2 | 0.00 | 0.30 | 0.00 | 66 | 1011.9 |
| 20260507085018 | 53 | 309 | 2.6 | 5.2 | 0.00 | 0.30 | 0.00 | 66 | 1012.0 |
| 20260507084516 | 53 | 309 | 1.7 | 7.8 | 0.00 | 0.30 | 0.00 | 66 | 1012.0 |
| 20260507084033 | 53 | 309 | 3.5 | 7.8 | 0.00 | 0.30 | 0.00 | 66 | 1011.9 |
| 20260507083531 | 53 | 309 | 3.5 | 7.8 | 0.00 | 0.30 | 0.00 | 67 | 1012.0 |
| 20260507083029 | 53 | 309 | 4.3 | 7.8 | 0.00 | 0.30 | 0.00 | 67 | 1011.8 |
| 20260507082527 | 53 | 326 | 1.7 | 8.7 | 0.00 | 0.30 | 0.00 | 67 | 1011.8 |
| 20260507082025 | 53 | 327 | 2.6 | 8.7 | 0.00 | 0.30 | 0.00 | 66 | 1011.7 |
| 20260507081523 | 53 | 276 | 3.5 | 9.6 | 0.00 | 0.30 | 0.00 | 67 | 1011.7 |
| 20260507081021 | 53 | 276 | 4.3 | 9.6 | 0.00 | 0.30 | 0.00 | 66 | 1011.8 |
| 20260507080517 | 53 | 320 | 5.2 | 9.6 | 0.00 | 0.30 | 0.00 | 67 | 1011.5 |
| 20260507080053 | 53 | 335 | 4.3 | 11.3 | 0.00 | 0.30 | 0.00 | 68 | 1011.5 |
| 20260507075529 | 53 | 327 | 5.2 | 11.3 | 0.00 | 0.30 | 0.00 | 69 | 1011.4 |
| 20260507075047 | 53 | 339 | 5.2 | 9.6 | 0.00 | 0.30 | 0.00 | 70 | 1011.3 |
| 20260507074524 | 53 | 341 | 6.1 | 9.6 | 0.00 | 0.30 | 0.00 | 71 | 1011.3 |
| 20260507074021 | 53 | 322 | 4.3 | 8.7 | 0.00 | 0.30 | 0.00 | 73 | 1011.3 |
| 20260507073518 | 54 | 314 | 5.2 | 11.3 | 0.00 | 0.30 | 0.00 | 75 | 1011.3 |
| 20260507073016 | 54 | 294 | 6.1 | 8.7 | 0.00 | 0.30 | 0.00 | 76 | 1011.4 |
| 20260507072532 | 54 | 293 | 5.2 | 7.0 | 0.00 | 0.30 | 0.00 | 76 | 1011.4 |
| 20260507072028 | 54 | 293 | 3.5 | 6.1 | 0.00 | 0.30 | 0.00 | 76 | 1011.7 |
| 20260507071547 | 54 | 293 | 4.3 | 6.1 | 0.00 | 0.30 | 0.00 | 77 | 1011.7 |
| 20260507071024 | 54 | 293 | 1.7 | 5.2 | 0.00 | 0.30 | 0.00 | 77 | 1011.7 |
| 20260507070522 | 54 | 293 | 1.7 | 6.1 | 0.00 | 0.30 | 0.00 | 77 | 1011.7 |
| 20260507070019 | 54 | 293 | 4.3 | 7.0 | 0.00 | 0.30 | 0.00 | 77 | 1011.7 |
| 20260507065536 | 54 | 293 | 3.5 | 7.0 | 0.00 | 0.30 | 0.00 | 77 | 1011.9 |
| 20260507065034 | 54 | 292 | 4.3 | 6.1 | 0.00 | 0.30 | 0.00 | 77 | 1011.8 |
| 20260507064552 | 54 | 292 | 2.6 | 6.1 | 0.00 | 0.30 | 0.00 | 78 | 1011.9 |
| 20260507064050 | 55 | 292 | 1.7 | 6.1 | 0.00 | 0.30 | 0.00 | 77 | 1011.8 |
| 20260507063527 | 55 | 292 | 2.6 | 5.2 | 0.00 | 0.30 | 0.00 | 78 | 1011.7 |
| 20260507063046 | 55 | 292 | 1.7 | 5.2 | 0.00 | 0.30 | 0.00 | 78 | 1011.7 |
| 20260507062522 | 55 | 292 | 2.6 | 5.2 | 0.00 | 0.30 | 0.00 | 78 | 1011.7 |
| 20260507062020 | 55 | 292 | 1.7 | 4.3 | 0.00 | 0.30 | 0.00 | 77 | 1011.9 |
| 20260507061518 | 55 | 292 | 1.7 | 5.2 | 0.00 | 0.30 | 0.00 | 78 | 1011.8 |
| 20260507061016 | 55 | 292 | 1.7 | 5.2 | 0.00 | 0.30 | 0.00 | 78 | 1011.7 |
| 20260507060534 | 55 | 292 | 0.9 | 4.3 | 0.00 | 0.30 | 0.00 | 77 | 1011.9 |
| 20260507060032 | 55 | 292 | 2.6 | 4.3 | 0.00 | 0.30 | 0.00 | 77 | 1012.0 |
| 20260507055530 | 55 | 292 | 1.7 | 5.2 | 0.00 | 0.30 | 0.00 | 77 | 1011.9 |
| 20260507055027 | 55 | 292 | 1.7 | 5.2 | 0.00 | 0.30 | 0.00 | 77 | 1011.8 |
| 20260507054525 | 55 | 292 | 2.6 | 5.2 | 0.00 | 0.30 | 0.00 | 77 | 1011.6 |
| 20260507054022 | 55 | 292 | 3.5 | 5.2 | 0.00 | 0.30 | 0.00 | 76 | 1011.7 |
| 20260507053520 | 55 | 292 | 2.6 | 5.2 | 0.00 | 0.30 | 0.00 | 76 | 1011.7 |
| 20260507053018 | 55 | 292 | 1.7 | 5.2 | 0.00 | 0.30 | 0.00 | 76 | 1011.6 |
| 20260507052516 | 55 | 292 | 1.7 | 5.2 | 0.00 | 0.30 | 0.00 | 76 | 1011.7 |
| 20260507052034 | 55 | 292 | 0.9 | 5.2 | 0.00 | 0.30 | 0.00 | 76 | 1011.5 |
| 20260507051553 | 55 | 292 | 3.5 | 7.8 | 0.00 | 0.30 | 0.00 | 76 | 1011.4 |
| 20260507051028 | 55 | 293 | 2.6 | 7.8 | 0.00 | 0.30 | 0.00 | 77 | 1011.5 |
| 20260507050543 | 55 | 293 | 4.3 | 9.6 | 0.00 | 0.30 | 0.00 | 76 | 1011.3 |
| 20260507050019 | 55 | 337 | 5.2 | 10.4 | 0.00 | 0.30 | 0.00 | 76 | 1011.4 |
| 20260507045554 | 55 | 321 | 4.3 | 10.4 | 0.00 | 0.30 | 0.00 | 76 | 1011.4 |
| 20260507045031 | 55 | 278 | 4.3 | 7.8 | 0.00 | 0.30 | 0.00 | 76 | 1011.7 |
| 20260507044549 | 55 | 289 | 5.2 | 7.8 | 0.00 | 0.30 | 0.00 | 76 | 1011.5 |
| 20260507044025 | 55 | 287 | 2.6 | 7.8 | 0.00 | 0.30 | 0.00 | 77 | 1011.6 |
| 20260507043544 | 55 | 307 | 3.5 | 8.7 | 0.00 | 0.30 | 0.00 | 77 | 1011.5 |
| 20260507043021 | 55 | 312 | 5.2 | 8.7 | 0.00 | 0.30 | 0.00 | 77 | 1011.5 |
| 20260507042519 | 55 | 289 | 4.3 | 7.0 | 0.00 | 0.30 | 0.00 | 77 | 1011.7 |
| 20260507042017 | 55 | 289 | 2.6 | 7.0 | 0.00 | 0.30 | 0.00 | 78 | 1011.8 |
| 20260507041534 | 56 | 288 | 3.5 | 7.0 | 0.00 | 0.30 | 0.00 | 78 | 1011.9 |
| 20260507041031 | 56 | 288 | 2.6 | 9.6 | 0.00 | 0.30 | 0.00 | 78 | 1011.7 |
| 20260507040528 | 56 | 288 | 3.5 | 9.6 | 0.00 | 0.30 | 0.00 | 79 | 1011.5 |
| 20260507040047 | 56 | 293 | 7.0 | 9.6 | 0.00 | 0.30 | 0.00 | 79 | 1011.6 |
| 20260507035522 | 56 | 310 | 2.6 | 6.1 | 0.00 | 0.30 | 0.30 | 79 | 1011.9 |
| 20260507035040 | 56 | 310 | 4.3 | 6.1 | 0.00 | 0.30 | 0.30 | 80 | 1012.0 |
| 20260507034515 | 56 | 310 | 3.5 | 6.1 | 0.00 | 0.30 | 0.30 | 80 | 1011.7 |
| 20260507034032 | 56 | 328 | 2.6 | 6.1 | 0.00 | 0.30 | 0.30 | 80 | 1011.3 |
| 20260507033530 | 56 | 328 | 3.5 | 6.1 | 0.00 | 0.30 | 0.30 | 80 | 1011.2 |
| 20260507033028 | 56 | 328 | 1.7 | 7.0 | 0.00 | 0.30 | 0.30 | 80 | 1011.4 |
| 20260507032525 | 56 | 328 | 3.5 | 10.4 | 0.00 | 0.30 | 0.30 | 80 | 1011.5 |
| 20260507032023 | 56 | 338 | 3.5 | 11.3 | 0.00 | 0.30 | 0.30 | 80 | 1011.2 |
| 20260507031521 | 56 | 335 | 3.5 | 9.6 | 0.00 | 0.30 | 0.30 | 80 | 1011.5 |
| 20260507031018 | 56 | 326 | 7.0 | 9.6 | 0.00 | 0.30 | 0.30 | 79 | 1011.5 |
| 20260507030535 | 56 | 323 | 4.3 | 13.0 | 0.00 | 0.30 | 0.30 | 79 | 1011.5 |
| 20260507030033 | 56 | 360 | 7.8 | 15.6 | 0.00 | 0.30 | 0.30 | 80 | 1011.8 |
| 20260507025530 | 57 | 298 | 7.8 | 15.6 | 0.00 | 0.30 | 0.30 | 81 | 1011.6 |
| 20260507025027 | 57 | 302 | 6.1 | 10.4 | 0.00 | 0.30 | 0.30 | 81 | 1011.7 |
| 20260507024526 | 57 | 324 | 6.1 | 9.6 | 0.00 | 0.30 | 0.30 | 81 | 1011.4 |
| 20260507024044 | 57 | 337 | 3.5 | 12.2 | 0.00 | 0.30 | 0.30 | 81 | 1011.2 |
| 20260507023520 | 57 | 320 | 5.2 | 12.2 | 0.00 | 0.30 | 0.30 | 80 | 1011.1 |
| 20260507023039 | 57 | 357 | 3.5 | 9.6 | 0.00 | 0.30 | 0.30 | 80 | 1011.0 |
| 20260507022515 | 57 | 335 | 5.2 | 11.3 | 0.00 | 0.30 | 0.30 | 80 | 1011.1 |
| 20260507022034 | 57 | 346 | 7.0 | 11.3 | 0.00 | 0.30 | 0.30 | 80 | 1011.1 |
| 20260507021531 | 57 | 337 | 1.7 | 9.6 | 0.00 | 0.30 | 0.30 | 80 | 1011.2 |
| 20260507021028 | 57 | 10 | 4.3 | 13.0 | 0.00 | 0.30 | 0.30 | 80 | 1011.0 |
| 20260507020525 | 58 | 289 | 6.1 | 13.0 | 0.00 | 0.30 | 0.30 | 80 | 1011.3 |
| 20260507020023 | 58 | 311 | 2.6 | 11.3 | 0.00 | 0.30 | 0.30 | 80 | 1011.2 |
| 20260507015521 | 58 | 354 | 7.0 | 10.4 | 0.00 | 0.30 | 0.30 | 81 | 1011.2 |
| 20260507015056 | 58 | 324 | 4.3 | 7.8 | 0.00 | 0.30 | 0.30 | 80 | 1010.7 |
| 20260507014533 | 58 | 324 | 3.5 | 7.8 | 0.00 | 0.30 | 0.30 | 80 | 1010.9 |
| 20260507014030 | 58 | 324 | 1.7 | 7.8 | 0.00 | 0.30 | 0.30 | 80 | 1011.0 |
| 20260507013528 | 58 | 349 | 4.3 | 7.8 | 0.00 | 0.30 | 0.30 | 81 | 1010.9 |
| 20260507013026 | 58 | 349 | 3.5 | 7.8 | 0.00 | 0.30 | 0.30 | 81 | 1010.5 |
| 20260507012544 | 59 | 5 | 4.3 | 7.8 | 0.00 | 0.30 | 0.30 | 80 | 1010.8 |
| 20260507012020 | 59 | 5 | 4.3 | 11.3 | 0.00 | 0.30 | 0.30 | 80 | 1010.8 |
| 20260507011519 | 59 | 322 | 5.2 | 15.6 | 0.00 | 0.30 | 0.30 | 79 | 1010.8 |
| 20260507011017 | 59 | 351 | 7.8 | 13.9 | 0.00 | 0.30 | 0.30 | 79 | 1010.6 |
| 20260507010535 | 60 | 338 | 7.0 | 11.3 | 0.00 | 0.30 | 0.30 | 80 | 1010.5 |
| 20260507010032 | 60 | 354 | 4.3 | 9.6 | 0.00 | 0.30 | 0.30 | 79 | 1010.7 |
| 20260507005551 | 60 | 5 | 4.3 | 9.6 | 0.00 | 0.30 | 0.30 | 79 | 1010.9 |
| 20260507005028 | 60 | 285 | 4.3 | 13.0 | 0.00 | 0.30 | 0.30 | 78 | 1011.0 |
| 20260507004525 | 60 | 289 | 4.3 | 13.0 | 0.00 | 0.30 | 0.30 | 79 | 1011.1 |
| 20260507004022 | 60 | 314 | 7.0 | 15.6 | 0.00 | 0.30 | 0.30 | 79 | 1010.9 |
| 20260507003520 | 60 | 335 | 7.8 | 15.6 | 0.00 | 0.30 | 0.30 | 80 | 1010.8 |
| 20260507003017 | 61 | 317 | 4.3 | 9.6 | 0.00 | 0.30 | 0.30 | 79 | 1010.7 |
| 20260507002555 | 61 | 302 | 4.3 | 12.2 | 0.00 | 0.30 | 0.30 | 79 | 1010.8 |
| 20260507002032 | 61 | 287 | 7.0 | 12.2 | 0.00 | 0.30 | 0.30 | 79 | 1010.7 |
| 20260507001530 | 61 | 300 | 2.6 | 13.0 | 0.00 | 0.30 | 0.30 | 79 | 1010.5 |
| 20260507001028 | 61 | 283 | 5.2 | 13.0 | 0.00 | 0.30 | 0.30 | 79 | 1010.1 |
| 20260507000524 | 61 | 360 | 5.2 | 13.0 | 0.00 | 0.30 | 0.30 | 79 | 1010.2 |
| 20260507000022 | 61 | 264 | 6.1 | 13.9 | 0.00 | 0.30 | 0.30 | 79 | 1010.1 |
| 20260506235518 | 62 | 314 | 7.0 | 15.6 | 0.00 | 0.30 | 0.30 | 80 | 1010.0 |
| 20260506235015 | 62 | 329 | 4.3 | 15.6 | 0.00 | 0.30 | 0.30 | 80 | 1010.0 |
| 20260506234532 | 62 | 282 | 7.0 | 13.0 | 0.00 | 0.30 | 0.30 | 80 | 1009.7 |
| 20260506234051 | 62 | 285 | 6.1 | 12.2 | 0.00 | 0.30 | 0.30 | 80 | 1009.6 |
| 20260506233528 | 62 | 312 | 5.2 | 11.3 | 0.00 | 0.30 | 0.30 | 81 | 1009.4 |
| 20260506233026 | 62 | 279 | 5.2 | 9.6 | 0.00 | 0.30 | 0.30 | 82 | 1009.3 |
| 20260506232521 | 62 | 295 | 5.2 | 9.6 | 0.00 | 0.30 | 0.30 | 83 | 1009.1 |
| 20260506232017 | 63 | 301 | 5.2 | 12.2 | 0.00 | 0.30 | 0.30 | 84 | 1009.0 |
| 20260506231515 | 63 | 331 | 7.0 | 12.2 | 0.00 | 0.30 | 0.30 | 84 | 1009.1 |
| 20260506231033 | 63 | 299 | 5.2 | 12.2 | 0.00 | 0.30 | 0.30 | 84 | 1009.0 |
| 20260506230531 | 63 | 306 | 4.3 | 13.0 | 0.00 | 0.30 | 0.30 | 85 | 1009.0 |
| 20260506230029 | 64 | 322 | 4.3 | 13.0 | 0.00 | 0.30 | 0.30 | 86 | 1009.0 |
| 20260506225526 | 64 | 293 | 5.2 | 11.3 | 0.00 | 0.30 | 0.30 | 86 | 1009.0 |
| 20260506225023 | 64 | 300 | 6.1 | 11.3 | 0.00 | 0.30 | 0.30 | 88 | 1009.0 |
| 20260506224521 | 65 | 277 | 5.2 | 10.4 | 0.00 | 0.30 | 0.30 | 89 | 1008.9 |
| 20260506224039 | 65 | 258 | 2.6 | 5.2 | 0.00 | 0.30 | 0.30 | 89 | 1008.8 |
| 20260506223515 | 65 | 258 | 0.9 | 9.6 | 0.01 | 0.30 | 0.30 | 89 | 1008.7 |
| 20260506223033 | 65 | 258 | 4.3 | 9.6 | 0.01 | 0.30 | 0.30 | 89 | 1008.8 |
| 20260506222552 | 66 | 237 | 2.6 | 7.0 | 0.01 | 0.30 | 0.30 | 89 | 1008.6 |
| 20260506222028 | 66 | 237 | 2.6 | 7.0 | 0.01 | 0.30 | 0.30 | 90 | 1008.5 |
| 20260506221526 | 65 | 223 | 3.5 | 6.1 | 0.01 | 0.30 | 0.30 | 90 | 1008.4 |
| 20260506221040 | 66 | 180 | 0.0 | 4.3 | 0.01 | 0.30 | 0.30 | 91 | 1008.6 |
| 20260506220516 | 65 | 180 | 1.7 | 4.3 | 0.01 | 0.30 | 0.30 | 90 | 1008.5 |
| 20260506220034 | 66 | 180 | 0.0 | 0.9 | 0.01 | 0.30 | 0.30 | 91 | 1008.3 |
| 20260506215532 | 65 | 180 | 0.0 | 1.7 | 0.01 | 0.30 | 0.30 | 91 | 1008.3 |
| 20260506215030 | 65 | 180 | 0.9 | 3.5 | 0.01 | 0.30 | 0.30 | 92 | 1008.3 |
| 20260506214528 | 65 | 180 | 0.0 | 3.5 | 0.01 | 0.30 | 0.30 | 91 | 1008.4 |
| 20260506214046 | 65 | 180 | 0.0 | 4.3 | 0.01 | 0.30 | 0.30 | 91 | 1008.5 |
| 20260506213522 | 65 | 180 | 0.9 | 6.1 | 0.00 | 0.29 | 0.29 | 90 | 1008.4 |
| 20260506213020 | 65 | 180 | 1.7 | 6.1 | 0.00 | 0.29 | 0.29 | 90 | 1008.3 |
| 20260506212517 | 65 | 180 | 1.7 | 4.3 | 0.00 | 0.29 | 0.29 | 90 | 1008.1 |
| 20260506212054 | 65 | 180 | 0.0 | 4.3 | 0.00 | 0.29 | 0.29 | 90 | 1008.0 |
| 20260506211552 | 66 | 180 | 0.9 | 5.2 | 0.00 | 0.29 | 0.29 | 89 | 1008.1 |
| 20260506211050 | 66 | 180 | 0.9 | 5.2 | 0.00 | 0.29 | 0.29 | 89 | 1008.1 |
| 20260506210526 | 66 | 180 | 0.0 | 5.2 | 0.00 | 0.29 | 0.29 | 89 | 1007.9 |
| 20260506210023 | 66 | 180 | 2.6 | 6.1 | 0.00 | 0.29 | 0.29 | 88 | 1007.9 |
| 20260506205520 | 66 | 180 | 1.7 | 7.8 | 0.00 | 0.29 | 0.29 | 88 | 1007.8 |
| 20260506205018 | 66 | 180 | 2.6 | 7.8 | 0.00 | 0.29 | 0.29 | 88 | 1007.7 |
| 20260506204516 | 66 | 177 | 4.3 | 7.8 | 0.00 | 0.29 | 0.29 | 88 | 1007.7 |
| 20260506204055 | 66 | 175 | 2.6 | 6.1 | 0.00 | 0.29 | 0.29 | 88 | 1007.7 |
| 20260506203530 | 66 | 174 | 3.5 | 10.4 | 0.00 | 0.29 | 0.29 | 89 | 1007.6 |
| 20260506203028 | 66 | 183 | 6.1 | 10.4 | 0.00 | 0.29 | 0.29 | 89 | 1007.5 |
| 20260506202526 | 66 | 172 | 4.3 | 9.6 | 0.00 | 0.29 | 0.29 | 89 | 1007.5 |
| 20260506202024 | 66 | 171 | 4.3 | 9.6 | 0.00 | 0.29 | 0.29 | 90 | 1007.4 |
| 20260506201522 | 66 | 185 | 2.6 | 8.7 | 0.00 | 0.29 | 0.29 | 89 | 1007.5 |
| 20260506201041 | 66 | 185 | 5.2 | 10.4 | 0.00 | 0.29 | 0.29 | 89 | 1007.6 |
| 20260506200538 | 66 | 188 | 5.2 | 10.4 | 0.00 | 0.29 | 0.29 | 89 | 1007.5 |
| 20260506200034 | 67 | 173 | 4.3 | 6.1 | 0.00 | 0.29 | 0.29 | 89 | 1007.6 |
| 20260506195531 | 67 | 173 | 2.6 | 7.0 | 0.00 | 0.29 | 0.29 | 90 | 1007.6 |
| 20260506195028 | 67 | 172 | 2.6 | 9.6 | 0.00 | 0.29 | 0.29 | 89 | 1007.5 |
| 20260506194526 | 67 | 171 | 5.2 | 9.6 | 0.00 | 0.29 | 0.29 | 90 | 1007.6 |
| 20260506194024 | 67 | 167 | 0.9 | 9.6 | 0.00 | 0.29 | 0.29 | 91 | 1007.5 |
| 20260506193522 | 66 | 169 | 5.2 | 9.6 | 0.00 | 0.29 | 0.29 | 91 | 1007.5 |
| 20260506193040 | 66 | 200 | 4.3 | 8.7 | 0.00 | 0.29 | 0.29 | 92 | 1007.5 |
| 20260506192515 | 66 | 182 | 2.6 | 10.4 | 0.00 | 0.29 | 0.29 | 91 | 1007.7 |
| 20260506192050 | 66 | 179 | 6.1 | 10.4 | 0.00 | 0.29 | 0.29 | 91 | 1007.6 |
| 20260506191525 | 66 | 177 | 5.2 | 7.8 | 0.00 | 0.29 | 0.29 | 91 | 1007.5 |
| 20260506191021 | 66 | 169 | 5.2 | 9.6 | 0.00 | 0.29 | 0.29 | 91 | 1007.6 |
| 20260506190518 | 67 | 175 | 6.1 | 9.6 | 0.01 | 0.29 | 0.29 | 91 | 1007.6 |
| 20260506190016 | 66 | 177 | 3.5 | 7.8 | 0.02 | 0.29 | 0.29 | 90 | 1007.5 |
| 20260506185532 | 67 | 179 | 3.5 | 7.8 | 0.02 | 0.29 | 0.29 | 90 | 1007.6 |
| 20260506185029 | 66 | 185 | 2.6 | 11.3 | 0.03 | 0.29 | 0.29 | 92 | 1007.7 |
| 20260506184527 | 66 | 153 | 3.5 | 11.3 | 0.03 | 0.29 | 0.29 | 93 | 1007.7 |
| 20260506184025 | 66 | 184 | 1.7 | 7.8 | 0.04 | 0.29 | 0.29 | 93 | 1008.0 |
| 20260506183522 | 65 | 195 | 1.7 | 7.8 | 0.04 | 0.29 | 0.29 | 93 | 1008.1 |
| 20260506183020 | 65 | 178 | 3.5 | 7.8 | 0.04 | 0.29 | 0.29 | 93 | 1008.2 |
| 20260506182517 | 65 | 179 | 2.6 | 7.0 | 0.04 | 0.29 | 0.29 | 94 | 1008.2 |
| 20260506182035 | 64 | 181 | 0.0 | 7.8 | 0.04 | 0.29 | 0.29 | 93 | 1008.1 |
| 20260506181532 | 64 | 181 | 4.3 | 7.8 | 0.04 | 0.29 | 0.29 | 93 | 1008.1 |
| 20260506181027 | 64 | 177 | 4.3 | 7.0 | 0.04 | 0.29 | 0.29 | 93 | 1008.2 |
| 20260506180524 | 64 | 171 | 3.5 | 7.8 | 0.03 | 0.28 | 0.28 | 92 | 1008.1 |
| 20260506180021 | 64 | 171 | 1.7 | 7.8 | 0.02 | 0.27 | 0.27 | 92 | 1008.1 |
| 20260506175518 | 64 | 181 | 4.3 | 7.8 | 0.02 | 0.27 | 0.27 | 91 | 1008.2 |
| 20260506175035 | 64 | 190 | 5.2 | 12.2 | 0.01 | 0.26 | 0.26 | 90 | 1008.1 |
| 20260506174533 | 64 | 180 | 7.0 | 12.2 | 0.01 | 0.26 | 0.26 | 90 | 1008.1 |
| 20260506174029 | 65 | 176 | 5.2 | 9.6 | 0.00 | 0.25 | 0.25 | 89 | 1007.9 |
| 20260506173548 | 65 | 181 | 4.3 | 13.0 | 0.00 | 0.25 | 0.25 | 87 | 1008.0 |
| 20260506173025 | 65 | 192 | 6.1 | 13.0 | 0.00 | 0.25 | 0.25 | 86 | 1007.9 |
| 20260506172522 | 65 | 180 | 4.3 | 9.6 | 0.00 | 0.25 | 0.25 | 86 | 1007.8 |
| 20260506172020 | 65 | 190 | 2.6 | 9.6 | 0.00 | 0.25 | 0.25 | 86 | 1007.8 |
| 20260506171517 | 65 | 179 | 5.2 | 8.7 | 0.00 | 0.25 | 0.25 | 88 | 1007.7 |
| 20260506171015 | 65 | 196 | 2.6 | 10.4 | 0.00 | 0.25 | 0.25 | 87 | 1007.7 |
| 20260506170532 | 65 | 196 | 5.2 | 11.3 | 0.00 | 0.25 | 0.25 | 87 | 1007.8 |
| 20260506170030 | 65 | 173 | 5.2 | 11.3 | 0.00 | 0.25 | 0.25 | 87 | 1007.8 |
| 20260506165550 | 65 | 177 | 7.0 | 11.3 | 0.00 | 0.25 | 0.25 | 87 | 1007.7 |
| 20260506165027 | 65 | 189 | 6.1 | 12.2 | 0.00 | 0.25 | 0.25 | 87 | 1007.6 |
| 20260506164525 | 66 | 134 | 7.0 | 12.2 | 0.00 | 0.25 | 0.25 | 87 | 1007.7 |
| 20260506164022 | 65 | 181 | 6.1 | 11.3 | 0.00 | 0.25 | 0.25 | 88 | 1007.7 |
| 20260506163518 | 65 | 196 | 5.2 | 17.4 | 0.00 | 0.25 | 0.25 | 88 | 1007.8 |
| 20260506163016 | 65 | 194 | 7.8 | 19.1 | 0.00 | 0.25 | 0.25 | 88 | 1007.8 |
| 20260506162534 | 65 | 194 | 6.1 | 13.0 | 0.00 | 0.25 | 0.25 | 89 | 1007.8 |
| 20260506162031 | 64 | 193 | 5.2 | 17.4 | 0.00 | 0.25 | 0.25 | 89 | 1007.8 |
| 20260506161529 | 64 | 186 | 7.8 | 17.4 | 0.00 | 0.25 | 0.25 | 88 | 1007.8 |
| 20260506161026 | 64 | 167 | 5.2 | 13.9 | 0.00 | 0.25 | 0.25 | 90 | 1007.7 |
| 20260506160523 | 64 | 182 | 7.8 | 13.9 | 0.00 | 0.25 | 0.25 | 90 | 1007.6 |
| 20260506160021 | 64 | 145 | 5.2 | 13.0 | 0.00 | 0.25 | 0.25 | 91 | 1007.6 |
| 20260506155519 | 63 | 183 | 6.1 | 18.2 | 0.00 | 0.25 | 0.25 | 92 | 1007.7 |
| 20260506155018 | 63 | 182 | 9.6 | 18.2 | 0.00 | 0.25 | 0.25 | 91 | 1007.8 |
| 20260506154516 | 63 | 194 | 7.0 | 13.9 | 0.00 | 0.25 | 0.25 | 92 | 1007.9 |
| 20260506154033 | 62 | 181 | 7.0 | 15.6 | 0.00 | 0.25 | 0.25 | 92 | 1008.0 |
| 20260506153530 | 62 | 192 | 7.8 | 15.6 | 0.00 | 0.25 | 0.25 | 92 | 1008.0 |
| 20260506153028 | 62 | 193 | 7.8 | 17.4 | 0.00 | 0.25 | 0.25 | 92 | 1008.0 |
| 20260506152525 | 62 | 122 | 8.7 | 17.4 | 0.01 | 0.25 | 0.25 | 92 | 1007.8 |
| 20260506152023 | 62 | 167 | 8.7 | 15.6 | 0.01 | 0.25 | 0.25 | 93 | 1007.7 |